EW6170 Weather Reports


Display with metric or nautical units.
time (UTC)temp
F
wind
direction
speed
MPH
gust
MPH
rain 1hr
in
rain 24hr
in
rain mn
in
humidity
%
barometer
mb
20200329062911 58 0.0 0.0 0.00 0.00 0.00 59 1015.1
20200329062408 59 0.0 0.0 0.00 0.00 0.00 60 1014.9
20200329061907 59 0.0 0.0 0.00 0.00 0.00 56 1014.9
20200329061402 60 0.0 0.0 0.00 0.00 0.00 55 1014.9
20200329060856 61 0.0 0.0 0.00 0.00 0.00 53 1014.9
20200329060305 61 0.0 0.0 0.00 0.00 0.00 50 1014.6
20200329055803 62 0.0 0.0 0.00 0.00 0.00 48 1014.4
20200329055244 62 0.0 0.0 0.00 0.00 0.00 46 1014.2
20200329054738 62 0.0 0.0 0.00 0.00 0.00 46 1014.2
20200329054217 63 0.0 0.0 0.00 0.00 0.00 44 1014.3
20200329053708 63 0.0 0.0 0.00 0.00 0.00 44 1014.3
20200329053103 63 0.0 0.0 0.00 0.00 0.00 44 1014.3
20200329052554 64 0.0 0.0 0.00 0.00 0.00 44 1014.3
20200329052040 63 0.0 0.0 0.00 0.00 0.00 44 1014.2
20200329051519 63 0.0 0.0 0.00 0.00 0.00 45 1014.2
20200329051003 63 0.0 0.0 0.00 0.00 0.00 45 1014.3
20200329050501 63 0.0 0.0 0.00 0.00 0.00 45 1014.2
20200329045956 63 0.0 0.0 0.00 0.00 0.00 46 1014.2
20200329045422 64 0.0 0.0 0.00 0.00 0.00 45 1014.3
20200329044912 64 0.0 0.0 0.00 0.00 0.00 45 1014.3
20200329044409 64 0.0 0.0 0.00 0.00 0.00 44 1014.3
20200329043853 64 0.0 0.0 0.00 0.00 0.00 44 1014.0
20200329043346 64 0.0 0.0 0.00 0.00 0.00 44 1014.0
20200329042809 64 0.0 0.0 0.00 0.00 0.00 44 1013.8
20200329042217 65 0.0 0.0 0.00 0.00 0.00 43 1014.1
20200329041709 65 0.0 0.0 0.00 0.00 0.00 42 1014.1
20200329041206 65 0.0 0.0 0.00 0.00 0.00 41 1013.9
20200329040701 66 0.0 0.0 0.00 0.00 0.00 40 1014.0
20200329040201 66 0.0 0.0 0.00 0.00 0.00 40 1013.8
20200329035702 66 0.0 0.0 0.00 0.00 0.00 39 1014.0
20200329035158 66 0.0 0.0 0.00 0.00 0.00 39 1013.9
20200329034624 66 0.0 0.0 0.00 0.00 0.00 39 1013.9
20200329034125 67 0.0 0.0 0.00 0.00 0.00 38 1013.9
20200329033605 67 0.0 0.0 0.00 0.00 0.00 38 1014.1
20200329033101 67 0.0 0.0 0.00 0.00 0.00 37 1014.0
20200329032553 67 0.0 0.0 0.00 0.00 0.00 37 1013.9
20200329032051 67 0.0 0.0 0.00 0.00 0.00 36 1013.9
20200329031533 67 0.0 0.0 0.00 0.00 0.00 36 1013.9
20200329031010 67 0.0 0.0 0.00 0.00 0.00 36 1014.0
20200329030415 67 0.0 0.0 0.00 0.00 0.00 36 1013.7
20200329025909 67 0.0 0.0 0.00 0.00 0.00 36 1013.7
20200329025404 67 0.0 0.0 0.00 0.00 0.00 36 1013.8
20200329024905 67 0.0 0.0 0.00 0.00 0.00 36 1013.7
20200329024347 67 0.0 0.0 0.00 0.00 0.00 37 1013.7
20200329023803 68 0.0 0.0 0.00 0.00 0.00 37 1013.5
20200329023303 68 0.0 0.0 0.00 0.00 0.00 36 1013.3
20200329022739 67 0.0 0.0 0.00 0.00 0.00 36 1013.3
20200329022221 68 0.0 0.0 0.00 0.00 0.00 38 1013.3
20200329021713 67 0.0 0.0 0.00 0.00 0.00 37 1013.2
20200329021204 67 0.0 0.0 0.00 0.00 0.00 39 1013.2
20200329020701 67 0.0 0.0 0.00 0.00 0.00 37 1013.1
20200329020159 67 0.0 0.0 0.00 0.00 0.00 39 1013.0
20200329015659 68 0.0 0.0 0.00 0.00 0.00 40 1013.0
20200329015138 68 0.0 0.0 0.00 0.00 0.00 37 1013.0
20200329014623 68 0.0 0.0 0.00 0.00 0.00 38 1013.0
20200329014115 68 0.0 0.0 0.00 0.00 0.00 40 1013.0
20200329013605 69 0.0 0.0 0.00 0.00 0.00 37 1012.9
20200329013057 69 0.0 0.0 0.00 0.00 0.00 37 1012.9
20200329012557 69 0.0 0.0 0.00 0.00 0.00 35 1012.8
20200329012041 69 0.0 0.0 0.00 0.00 0.00 35 1012.7
20200329011523 70 0.0 0.0 0.00 0.00 0.00 36 1012.6
20200329011012 70 0.0 0.0 0.00 0.00 0.00 35 1012.6
20200329010507 71 0.0 0.0 0.00 0.00 0.00 33 1012.4
20200329005943 72 0.0 0.0 0.00 0.00 0.00 33 1012.3
20200329005429 72 0.0 0.0 0.00 0.00 0.00 32 1012.3
20200329004929 73 0.0 0.0 0.00 0.00 0.00 32 1012.2
20200329004418 73 0.0 0.0 0.00 0.00 0.00 31 1012.2
20200329003905 74 0.0 0.0 0.00 0.00 0.00 31 1012.2
20200329003359 74 0.0 0.0 0.00 0.00 0.00 31 1012.0
20200329002836 74 0.0 0.0 0.00 0.00 0.00 30 1012.1
20200329002310 75 0.0 0.0 0.00 0.00 0.00 29 1012.0
20200329001806 75 0.0 0.0 0.00 0.00 0.00 30 1011.9
20200329001305 75 0.0 0.0 0.00 0.00 0.00 30 1012.0
20200329000803 75 0.0 0.0 0.00 0.00 0.00 30 1011.9
20200329000301 76 0.0 0.0 0.00 0.00 0.00 30 1011.8
20200328235759 76 0.0 0.0 0.00 0.00 0.00 29 1011.8
20200328235239 76 0.0 0.0 0.00 0.00 0.00 28 1011.8
20200328234725 76 0.0 0.0 0.00 0.00 0.00 27 1011.6
20200328234212 76 0.0 0.0 0.00 0.00 0.00 27 1011.6
20200328233709 76 0.0 0.0 0.00 0.00 0.00 27 1011.6
20200328233203 76 0.0 0.0 0.00 0.00 0.00 27 1011.4
20200328232643 76 0.0 0.0 0.00 0.00 0.00 27 1011.4
20200328232137 77 0.0 0.0 0.00 0.00 0.00 27 1011.4
20200328231631 76 0.0 0.0 0.00 0.00 0.00 27 1011.3
20200328231110 76 0.0 0.0 0.00 0.00 0.00 28 1011.2
20200328230605 76 0.0 0.0 0.00 0.00 0.00 27 1011.3
20200328230107 77 0.0 0.0 0.00 0.00 0.00 27 1011.0
20200328225604 77 0.0 0.0 0.00 0.00 0.00 27 1010.9
20200328225100 77 0.0 0.0 0.00 0.00 0.00 26 1010.9
20200328224547 78 0.0 0.0 0.00 0.00 0.00 26 1011.0
20200328224032 78 0.0 0.0 0.00 0.00 0.00 27 1010.6
20200328223529 78 0.0 0.0 0.00 0.00 0.00 27 1010.5
20200328223018 78 0.0 0.0 0.00 0.00 0.00 26 1010.6
20200328222513 78 0.0 0.0 0.00 0.00 0.00 27 1010.5
20200328222010 78 0.0 0.0 0.00 0.00 0.00 26 1010.4
20200328221501 78 0.0 0.0 0.00 0.00 0.00 25 1010.4
20200328220955 78 0.0 0.0 0.00 0.00 0.00 27 1010.4
20200328220415 78 0.0 0.0 0.00 0.00 0.00 27 1010.2
20200328215912 78 0.0 0.0 0.00 0.00 0.00 27 1010.2
20200328215411 78 0.0 0.0 0.00 0.00 0.00 27 1010.3
20200328214910 78 0.0 0.0 0.00 0.00 0.00 25 1010.1
20200328214407 79 0.0 0.0 0.00 0.00 0.00 27 1010.3
20200328213907 79 0.0 0.0 0.00 0.00 0.00 26 1010.1
20200328213405 79 0.0 0.0 0.00 0.00 0.00 27 1010.0
20200328212856 79 0.0 0.0 0.00 0.00 0.00 27 1010.2
20200328212325 79 0.0 0.0 0.00 0.00 0.00 27 1010.2
20200328211826 79 0.0 0.0 0.00 0.00 0.00 27 1010.1
20200328211312 79 0.0 0.0 0.00 0.00 0.00 28 1010.2
20200328210810 79 0.0 0.0 0.00 0.00 0.00 28 1010.2
20200328210255 79 0.0 0.0 0.00 0.00 0.00 28 1010.3
20200328205726 79 0.0 0.0 0.00 0.00 0.00 27 1010.2
20200328205202 79 0.0 0.0 0.00 0.00 0.00 27 1010.2
20200328204705 79 0.0 0.0 0.00 0.00 0.00 27 1010.3
20200328204152 79 0.0 0.0 0.00 0.00 0.00 28 1010.2
20200328203633 79 0.0 0.0 0.00 0.00 0.00 28 1010.1
20200328203125 80 0.0 0.0 0.00 0.00 0.00 28 1010.0
20200328202603 80 0.0 0.0 0.00 0.00 0.00 28 1010.1
20200328202103 80 0.0 0.0 0.00 0.00 0.00 27 1010.3
20200328201553 80 0.0 0.0 0.00 0.00 0.00 29 1010.4
20200328201028 80 0.0 0.0 0.00 0.00 0.00 28 1010.4
20200328200504 80 0.0 0.0 0.00 0.00 0.00 29 1010.2
20200328195957 79 0.0 0.0 0.00 0.00 0.00 29 1010.3
20200328195419 80 0.0 0.0 0.00 0.00 0.00 29 1010.4
20200328194909 79 0.0 0.0 0.00 0.00 0.00 29 1010.3
20200328194401 79 0.0 0.0 0.00 0.00 0.00 29 1010.4
20200328193848 79 0.0 0.0 0.00 0.00 0.00 30 1010.5
20200328193342 79 252 3.0 0.0 0.00 0.00 0.00 30 1010.4
20200328192822 79 252 3.0 17.0 0.00 0.00 0.00 31 1010.5
20200328192315 78 252 3.0 17.0 0.00 0.00 0.00 31 1010.4
20200328191814 78 252 3.0 17.0 0.00 0.00 0.00 32 1010.4
20200328191314 79 243 5.0 17.0 0.00 0.00 0.00 32 1010.5
20200328190806 79 261 6.0 17.0 0.00 0.00 0.00 32 1010.5
20200328190306 78 299 8.0 17.0 0.00 0.00 0.00 32 1010.5
20200328185805 79 0.0 0.0 0.00 0.00 0.00 32 1010.6
20200328185304 79 0.0 0.0 0.00 0.00 0.00 31 1010.4
20200328184801 79 0.0 0.0 0.00 0.00 0.00 31 1010.6
20200328184300 78 0.0 0.0 0.00 0.00 0.00 30 1010.6
20200328183753 78 0.0 0.0 0.00 0.00 0.00 31 1010.6
20200328183246 78 0.0 0.0 0.00 0.00 0.00 32 1010.4
20200328182737 78 0.0 0.0 0.00 0.00 0.00 31 1010.6
20200328182216 78 0.0 0.0 0.00 0.00 0.00 34 1010.6
20200328181714 77 0.0 0.0 0.00 0.00 0.00 32 1010.6
20200328181204 77 0.0 0.0 0.00 0.00 0.00 34 1010.6
20200328180645 77 0.0 0.0 0.00 0.00 0.00 34 1010.6
20200328180132 76 0.0 0.0 0.00 0.00 0.00 33 1010.7
20200328175628 77 0.0 0.0 0.00 0.00 0.00 33 1010.9
20200328175119 76 0.0 0.0 0.00 0.00 0.00 34 1010.9
20200328174613 76 0.0 0.0 0.00 0.00 0.00 34 1010.7
20200328174110 76 0.0 0.0 0.00 0.00 0.00 37 1010.7
20200328173553 75 0.0 0.0 0.00 0.00 0.00 39 1010.7
20200328173053 75 0.0 0.0 0.00 0.00 0.00 38 1010.9
20200328172551 74 0.0 0.0 0.00 0.00 0.00 40 1010.6
20200328172042 73 0.0 0.0 0.00 0.00 0.00 43 1010.7
20200328171528 73 0.0 0.0 0.00 0.00 0.00 45 1010.6
20200328171024 72 0.0 0.0 0.00 0.00 0.00 46 1010.7
20200328170501 71 0.0 0.0 0.00 0.00 0.00 49 1010.7
20200328165950 71 0.0 0.0 0.00 0.00 0.00 50 1010.7
20200328165419 71 0.0 0.0 0.00 0.00 0.00 49 1010.7
20200328164916 71 0.0 0.0 0.00 0.00 0.00 50 1010.7
20200328164416 70 0.0 0.0 0.00 0.00 0.00 52 1010.6
20200328163903 69 0.0 0.0 0.00 0.00 0.00 57 1010.6
20200328163400 69 0.0 0.0 0.00 0.00 0.00 58 1010.7
20200328162812 68 0.0 0.0 0.00 0.00 0.00 62 1010.5
20200328162305 67 0.0 0.0 0.00 0.00 0.00 63 1010.3
20200328161804 65 0.0 0.0 0.00 0.00 0.00 68 1010.3
20200328161302 65 0.0 0.0 0.00 0.00 0.00 70 1010.3
20200328160739 64 0.0 0.0 0.00 0.00 0.00 72 1010.4
20200328160221 64 0.0 0.0 0.00 0.00 0.00 72 1010.3
20200328155704 64 0.0 0.0 0.00 0.00 0.00 72 1010.3
20200328155154 64 0.0 0.0 0.00 0.00 0.00 72 1010.5
20200328154605 63 0.0 0.0 0.00 0.00 0.00 74 1010.2
20200328154104 63 0.0 0.0 0.00 0.00 0.00 76 1010.1
20200328153600 62 0.0 0.0 0.00 0.00 0.00 77 1010.2
20200328153050 62 0.0 0.0 0.00 0.00 0.00 79 1010.2
20200328152540 61 0.0 0.0 0.00 0.00 0.00 81 1010.0
20200328152012 60 0.0 0.0 0.00 0.00 0.00 83 1010.2
20200328151507 60 0.0 0.0 0.00 0.00 0.00 86 1010.1
20200328150930 60 0.0 0.0 0.00 0.00 0.00 87 1010.3
20200328150405 60 0.0 0.0 0.00 0.00 0.00 87 1009.9
20200328145904 61 0.0 0.0 0.00 0.00 0.00 87 1009.8
20200328145405 63 0.0 0.0 0.00 0.00 0.00 84 1010.4
20200328144852 68 0.0 0.0 0.00 0.00 0.00 87 1010.6
20200328144351 72 0.0 0.0 0.00 0.00 0.00 95 1009.2
20200328143842 72 0.0 0.0 0.00 0.00 0.00 95 1009.0
20200328143323 72 0.0 0.0 0.00 0.00 0.00 95 1009.0
20200328142813 72 0.0 0.0 0.00 0.00 0.00 95 1009.0
20200328142304 72 0.0 0.0 0.00 0.00 0.00 95 1008.8
20200328141736 71 0.0 0.0 0.00 0.00 0.00 95 1008.9
20200328141232 72 0.0 0.0 0.00 0.00 0.00 95 1009.0
20200328140706 71 0.0 0.0 0.00 0.00 0.00 95 1008.5
20200328140142 71 0.0 0.0 0.00 0.00 0.00 95 1008.0
20200328135605 71 0.0 0.0 0.00 0.00 0.00 95 1008.3
20200328135104 71 0.0 0.0 0.00 0.00 0.00 95 1007.7
20200328134604 71 0.0 0.0 0.00 0.00 0.00 95 1008.0
20200328134102 71 0.0 0.0 0.00 0.00 0.00 95 1007.7
20200328133558 71 0.0 0.0 0.00 0.00 0.00 95 1007.4
20200328133058 71 0.0 0.0 0.00 0.00 0.00 95 1007.5
20200328132541 71 0.0 0.0 0.00 0.00 0.00 95 1007.2
20200328132020 71 0.0 0.0 0.00 0.00 0.00 95 1006.6
20200328131506 71 0.0 0.0 0.00 0.00 0.00 95 1006.5
20200328131002 71 0.0 0.0 0.00 0.00 0.00 95 1006.4
20200328130452 71 0.0 0.0 0.00 0.00 0.00 95 1006.1
20200328125946 71 0.0 0.0 0.00 0.00 0.00 95 1006.0
20200328125432 71 0.0 0.0 0.00 0.00 0.00 95 1006.0
20200328124916 71 0.0 0.0 0.00 0.00 0.00 95 1006.0
20200328124403 71 0.0 0.0 0.00 0.00 0.00 95 1006.1
20200328123902 71 0.0 0.0 0.00 0.00 0.00 94 1006.3
20200328123402 71 0.0 0.0 0.00 0.00 0.00 94 1006.1
20200328122814 71 0.0 0.0 0.00 0.00 0.00 94 1006.0
20200328122302 71 0.0 0.0 0.00 0.00 0.00 94 1005.9
20200328121741 71 0.0 0.0 0.00 0.00 0.00 94 1006.0
20200328121238 71 0.0 0.0 0.00 0.00 0.00 94 1005.8
20200328120710 71 0.0 0.0 0.00 0.00 0.00 94 1005.1
20200328120154 71 0.0 0.0 0.00 0.00 0.00 94 1006.0
20200328115620 71 0.0 0.0 0.00 0.00 0.00 94 1006.6
20200328115108 71 0.0 0.0 0.00 0.00 0.00 94 1007.5
20200328114601 71 0.0 0.0 0.00 0.00 0.00 94 1006.3
20200328114100 71 0.0 0.0 0.00 0.00 0.00 94 1006.0
20200328113601 71 0.0 0.0 0.00 0.00 0.00 94 1005.4
20200328113102 71 0.0 0.0 0.00 0.00 0.00 94 1004.8
20200328112558 71 0.0 0.0 0.00 0.00 0.00 94 1004.4
20200328112030 71 0.0 0.0 0.00 0.00 0.00 94 1005.3
20200328111526 72 0.0 0.0 0.00 0.00 0.00 93 1005.3
20200328111005 72 0.0 0.0 0.00 0.00 0.00 93 1006.5
20200328110502 72 0.0 0.0 0.00 0.00 0.00 93 1006.0
20200328110002 72 0.0 0.0 0.00 0.00 0.00 93 1005.5
20200328105459 72 0.0 0.0 0.00 0.00 0.00 93 1005.5
20200328104958 72 0.0 0.0 0.00 0.00 0.00 93 1005.4
20200328104430 72 0.0 0.0 0.00 0.00 0.00 93 1005.7
20200328103916 72 0.0 0.0 0.00 0.00 0.00 93 1005.9
20200328103408 72 0.0 0.0 0.00 0.00 0.00 93 1005.4
20200328102905 72 0.0 0.0 0.00 0.00 0.00 93 1004.9
20200328102404 72 0.0 0.0 0.00 0.00 0.00 93 1005.4
20200328101844 72 0.0 0.0 0.00 0.00 0.00 93 1005.3
20200328101316 72 0.0 0.0 0.00 0.00 0.00 93 1005.3
20200328100807 72 0.0 0.0 0.00 0.00 0.00 93 1005.4
20200328100304 72 0.0 0.0 0.00 0.00 0.00 93 1005.5
20200328095804 72 0.0 0.0 0.00 0.00 0.00 93 1006.3
20200328095301 72 0.0 0.0 0.00 0.00 0.00 93 1006.6
20200328094758 72 0.0 0.0 0.00 0.00 0.00 93 1006.1
20200328094252 72 0.0 0.0 0.00 0.00 0.00 93 1005.6
20200328093712 72 0.0 0.0 0.00 0.00 0.00 93 1005.7
20200328093204 72 0.0 0.0 0.00 0.00 0.00 93 1005.9
20200328092703 72 0.0 0.0 0.00 0.00 0.00 93 1005.7
20200328092152 72 0.0 0.0 0.00 0.00 0.00 93 1005.7
20200328091634 71 0.0 0.0 0.00 0.00 0.00 93 1006.3
20200328091102 71 0.0 0.0 0.00 0.00 0.00 93 1006.1
20200328090530 71 0.0 0.0 0.00 0.00 0.00 93 1005.9
20200328090015 71 0.0 0.0 0.00 0.00 0.00 93 1005.6
20200328085510 71 0.0 0.0 0.00 0.00 0.00 93 1005.5
20200328085001 71 0.0 0.0 0.00 0.00 0.00 93 1005.7
20200328084452 71 0.0 0.0 0.00 0.00 0.00 93 1005.7
20200328083946 71 0.0 0.0 0.00 0.00 0.00 93 1005.7
20200328083426 71 0.0 0.0 0.00 0.00 0.00 93 1005.6
20200328082911 71 0.0 0.0 0.00 0.00 0.00 93 1005.4
20200328082405 71 0.0 0.0 0.00 0.00 0.00 93 1005.5
20200328081904 71 0.0 0.0 0.00 0.00 0.00 93 1005.2
20200328081402 71 0.0 0.0 0.00 0.00 0.00 93 1005.2
20200328080851 72 0.0 0.0 0.00 0.00 0.00 93 1005.2
20200328080336 72 0.0 0.0 0.00 0.00 0.00 92 1005.3
20200328075826 72 0.0 0.0 0.00 0.00 0.00 92 1005.5
20200328075302 72 0.0 0.0 0.00 0.00 0.00 92 1005.4
20200328074745 72 0.0 0.0 0.00 0.00 0.00 92 1005.6
20200328074209 72 0.0 0.0 0.00 0.00 0.00 92 1005.5
20200328073700 72 0.0 0.0 0.00 0.00 0.00 92 1006.3
20200328073200 72 0.0 0.0 0.00 0.00 0.00 92 1006.7
20200328072650 72 0.0 0.0 0.00 0.00 0.00 92 1006.7
20200328072140 72 0.0 0.0 0.00 0.00 0.00 92 1006.2
20200328071640 72 0.0 0.0 0.00 0.00 0.00 92 1005.6
20200328071119 72 0.0 0.0 0.00 0.00 0.00 92 1005.6
20200328070609 73 0.0 0.0 0.00 0.00 0.00 92 1005.9
20200328070058 73 0.0 0.0 0.00 0.00 0.00 92 1006.3
20200328065550 73 0.0 0.0 0.00 0.00 0.00 92 1006.5
20200328065014 73 0.0 0.0 0.00 0.00 0.00 92 1007.1
20200328064457 73 0.0 0.0 0.00 0.00 0.00 92 1007.2
20200328063950 73 0.0 0.0 0.00 0.00 0.00 92 1007.2
20200328063432 73 0.0 0.0 0.00 0.00 0.00 91 1006.5